2017-008AT

Last updated on Tue Feb 28 2017 00:15:03 GMT+0000 (Coordinated Universal Time)

1 41989U 17008AT 17058.89618798 .00001682 00000-0 77444-4 0 9991 2 41989 97.5100 120.5051 0007361 208.6559 151.4264 15.21690755 1231
UTC large
Height (km)
Speed (km/s)
/
Latitude / Longitude
Inclination (degrees)
Orbital Period (minutes)
Azimuth
Elevation
Range (km)
Doppler Factor

Next 0 passes for location: London (51.5072 / 0.1276)

Sorry there are no passes over London.
2017-008AT